TimeCST,TemperatureF,Dew PointF,Humidity,Sea Level PressureIn,VisibilityMPH,Wind Direction,Wind SpeedMPH,Gust SpeedMPH,PrecipitationIn,Events,Conditions,WindDirDegrees,DateUTC
12:00 AM,-43,-48,60,29.68,15,Calm,Calm,,,Snow,Snow,,2013-01-17 06:00:00
12:00 AM,-43.6,-47.2,82,29.68,15.0,Calm,Calm,-,N/A,,Clear,0,2013-01-17 06:00:00
1:00 AM,-40.0,-47.2,67,29.64,15.0,Calm,Calm,-,N/A,,Clear,0,2013-01-17 07:00:00
2:00 AM,-40.0,-45.4,74,29.64,15.0,Calm,Calm,-,N/A,,Clear,0,2013-01-17 08:00:00
3:00 AM,-40.0,-45.4,74,29.62,15.0,Calm,Calm,-,N/A,,Mostly Cloudy,0,2013-01-17 09:00:00
4:00 AM,-36.4,-43.6,67,29.62,15.0,Calm,Calm,-,N/A,,Mostly Cloudy,0,2013-01-17 10:00:00
5:00 AM,-36.4,-45.4,61,29.61,15.0,Calm,Calm,-,N/A,,Scattered Clouds,0,2013-01-17 11:00:00
6:00 AM,-36,-43,51,29.61,15,Calm,Calm,,,Snow,Snow,,2013-01-17 12:00:00
6:00 AM,-34.6,-43.6,61,29.61,15.0,Calm,Calm,-,N/A,,Mostly Cloudy,0,2013-01-17 12:00:00
7:00 AM,-32.8,-40.0,68,29.59,15.0,Calm,Calm,-,N/A,,Mostly Cloudy,0,2013-01-17 13:00:00
8:00 AM,-34.6,-41.8,68,29.58,15.0,ESE,3.5,-,N/A,,Overcast,110,2013-01-17 14:00:00
9:00 AM,-34.6,-43.6,61,29.58,15.0,SE,3.5,-,N/A,,Scattered Clouds,140,2013-01-17 15:00:00
10:00 AM,-38.2,-45.4,67,29.57,15.0,Calm,Calm,-,N/A,,Partly Cloudy,0,2013-01-17 16:00:00
11:00 AM,-38.2,-45.4,67,29.59,15.0,SE,5.8,-,N/A,,Partly Cloudy,140,2013-01-17 17:00:00
12:00 PM,-38,-45,50,29.60,15,East,2.3,,,Snow,Snow,90,2013-01-17 18:00:00
12:00 PM,-38.2,-45.4,67,29.60,15.0,East,2.3,-,N/A,,Partly Cloudy,80,2013-01-17 18:00:00
1:00 PM,-38.2,-45.4,67,29.61,15.0,Calm,Calm,-,N/A,,Scattered Clouds,0,2013-01-17 19:00:00
2:00 PM,-36.4,-43.6,67,29.64,15.0,SE,6.9,-,N/A,,Partly Cloudy,140,2013-01-17 20:00:00
3:00 PM,-34.6,-43.6,61,29.66,15.0,ESE,6.9,-,N/A,,Partly Cloudy,120,2013-01-17 21:00:00
4:00 PM,-36.4,-43.6,67,29.68,15.0,ESE,3.5,-,N/A,,Partly Cloudy,110,2013-01-17 22:00:00
5:00 PM,-38.2,-45.4,67,29.70,15.0,Calm,Calm,-,N/A,,Partly Cloudy,0,2013-01-17 23:00:00
6:00 PM,-40,-46,57,29.73,15,ESE,3.5,,,Snow,Snow,120,2013-01-18 00:00:00
6:00 PM,-40.0,-45.4,74,29.73,15.0,SE,3.5,-,N/A,,Clear,130,2013-01-18 00:00:00
7:00 PM,-40.0,-45.4,74,29.73,15.0,ESE,3.5,-,N/A,,Clear,120,2013-01-18 01:00:00
8:00 PM,-41.8,-47.2,74,29.75,15.0,ESE,3.5,-,N/A,,Clear,120,2013-01-18 02:00:00